星链-32898 (STARLINK-32898)

导读 | 星芒AI

STARLINK-32898 是 SpaceX Starlink 卫星互联网项目中的一颗低轨卫星,属于第三代星链卫星(v1.5 或 v2 架构)。该卫星由猎鹰9号火箭发射入轨,旨在为全球用户提供高速、低延迟的宽带互联网服务。它运行在约 550 公里的轨道高度,配备先进通信设备和离子推进系统,支持自动避碰和轨道调整。作为星链星座的一部分,STARLINK-32898 有助于扩大网络覆盖并提升连接性能。

基本信息
目录编号:
62998
目录名称:
STARLINK-32898
国际标识:
2025-031T
轨道中心:
EARTH
卫星名称:
星链-32898
卫星全名:
星链-32898 (STARLINK-32898)
卫星状态:
在轨 (已飞行269 天)
发射日期:
2025-02-11 UTC
国别 :
美国 (US)
星等 :
--
轨道信息
数据来源 国际轨道数据
星历时间: 2025-11-06T20:12:41+0800
1天前
查看轨道信息
半长轴: 6861.1km
偏心率: 0.0001062
轨道倾角: 43.001°
近地点辐角 236.080°
升交点赤经 119.226°
平近点角 123.995°
近地点: 482.236km
远地点: 483.694km
周期: 94.265分钟
每日圈数: 15.276088
详细信息
固有亮度:
5
最大亮度:
2.5
卫星平台:
Starlink V1.0
覆盖范围:
全球
运营商:
太空探索技术公司
运营商所在国:
美国
制造商(研发单位):
太空探索技术公司
制造商所在国:
美国
使用方式:
暂无
卫星简介
Starlink 计划是 SpaceX 推出的全球卫星互联网项目,通过发射低轨道卫星,为全球尤其是偏远地区提供高速、低延迟的互联网服务。自 2019 年起,Starlink 已部署数千颗卫星,旨在缩小全球数字鸿沟,推动互联网普及。该项目还为军事、航空等行业提供通信支持,带来广泛经济效益。
2D轨道图
3D轨道图
轨道高度分析图
轨道倾角分析图
轨道综合分析图
查看轨道综合分析图